EW2821 Weather Reports


time (UTC)temp
C
wind
direction
speed
KPH
gust
KPH
rain 1hr
cm
rain 24hr
cm
rain mn
cm
humidity
%
barometer
mb
20260503174617 14 199 17.7 40.2 0.00 0.00 0.00 46 1016.3
20260503173058 14 227 11.3 35.4 0.00 0.00 0.00 44 1016.4
20260503171553 13 248 16.1 37.0 0.00 0.00 0.00 47 1016.7
20260503081509 -1 139 0.0 0.0 0.00 0.00 0.00 94 1017.2
20260503071504 -1 139 0.0 0.0 0.00 0.00 0.00 94 1017.3
20260503054556 -1 139 0.0 0.0 0.00 0.00 0.00 93 1017.8
20260503053054 -1 139 0.0 0.0 0.00 0.00 0.00 93 1018.0
20260503051552 -1 139 0.0 0.0 0.00 0.00 0.00 93 1017.8
20260503050051 -1 139 0.0 0.0 0.00 0.00 0.00 93 1017.9
20260503044554 -1 139 0.0 0.0 0.00 0.00 0.00 92 1017.9
20260503043050 0 139 0.0 0.0 0.00 0.00 0.00 92 1017.7
20260503041548 0 139 0.0 0.0 0.00 0.00 0.00 91 1017.7
20260503040046 0 139 0.0 0.0 0.00 0.00 0.00 91 1017.8
20260503034559 0 139 0.0 0.0 0.00 0.00 0.00 91 1017.9
20260503033052 0 139 0.0 0.0 0.00 0.00 0.00 90 1017.9
20260503031547 0 139 0.0 0.0 0.00 0.00 0.00 90 1017.9
20260503030044 0 139 0.0 0.0 0.00 0.00 0.00 89 1017.9
20260503024548 0 139 0.0 0.0 0.00 0.00 0.00 87 1017.9
20260503023042 1 139 0.0 0.0 0.00 0.00 0.00 86 1017.8
20260503021541 1 139 0.0 0.0 0.00 0.00 0.00 85 1017.9
20260503020040 1 139 0.0 0.0 0.00 0.00 0.00 84 1017.7
20260503014542 2 139 0.0 0.0 0.00 0.00 0.00 82 1017.7
20260503013040 2 139 0.0 0.0 0.00 0.00 0.00 79 1017.6
20260503011540 3 139 0.0 0.0 0.00 0.00 0.00 78 1017.5
20260503010040 4 139 0.0 0.0 0.00 0.00 0.00 73 1017.4
20260503004539 5 139 0.0 0.0 0.00 0.00 0.00 71 1017.4
20260503003049 6 136 0.0 0.0 0.00 0.00 0.00 64 1017.3
20260503001556 7 136 0.0 1.6 0.00 0.00 0.00 57 1017.2
20260503000038 8 93 0.0 6.4 0.00 0.00 0.00 53 1017.1
20260502234543 8 360 1.6 6.4 0.00 0.00 0.00 51 1017.1
20260502233035 8 55 3.2 14.5 0.00 0.00 0.00 51 1017.1
20260502231535 9 324 4.8 14.5 0.00 0.00 0.00 53 1017.2
20260502230036 8 342 8.0 16.1 0.00 0.00 0.00 52 1017.2
20260502224534 8 326 6.4 17.7 0.00 0.00 0.00 54 1017.2
20260502223034 7 336 9.7 19.3 0.00 0.00 0.00 54 1017.4
20260502221537 8 332 6.4 22.5 0.00 0.00 0.00 56 1017.4
20260502220035 8 320 16.1 24.1 0.00 0.00 0.00 53 1017.3
20260502214536 8 326 14.5 22.5 0.00 0.00 0.00 52 1017.1
20260502213033 8 10 16.1 27.4 0.00 0.00 0.00 55 1017.1
20260502211531 8 336 12.9 22.5 0.00 0.00 0.00 57 1017.1
20260502210031 8 342 9.7 17.7 0.00 0.00 0.00 58 1017.1
20260502204534 8 5 9.7 25.7 0.00 0.00 0.00 57 1017.1
20260502203029 8 293 12.9 25.7 0.00 0.00 0.00 56 1017.0
20260502201529 8 328 14.5 22.5 0.00 0.00 0.00 58 1017.2
20260502200029 8 313 16.1 22.5 0.00 0.00 0.00 54 1017.3
20260502194530 8 337 14.5 27.4 0.00 0.00 0.00 54 1017.3
20260502193027 9 345 19.3 29.0 0.00 0.00 0.00 54 1017.3
20260502191526 8 360 9.7 24.1 0.00 0.00 0.00 54 1017.5
20260502190024 8 348 12.9 24.1 0.00 0.00 0.00 58 1017.6
20260502184532 8 309 19.3 27.4 0.00 0.00 0.00 54 1017.7
20260502183023 8 299 9.7 17.7 0.00 0.00 0.00 53 1017.7
20260502181529 8 337 9.7 29.0 0.00 0.00 0.00 53 1017.8